CZ-6A DEB, 57834

Orbit data source: Space-Track

CZ-6A DEB, 57834 is space debris in LEO originally from a launch on Sun, 10 Sep 2023 UTC launched from the Taiyaun Space Center, China (TSC). Debris objects in space refer to the collection of defunct objects orbiting the Earth. Examples of debris include non-operational satellites, rocket bodies, and fragments generated from explosions, collisions, or faulty payload assembly.

Loading next visibility...
Identifier
57834, 2023-139E
Orbit
LEO
Country
Flag of CNCN / PRC
Related business
Manufacturer
Unknown
Mission
Spacecraft
Bus & Motor
Unknown
Mass
Unknown
Launch date (UTC)
2023-09-10 (3 years ago)
Launch vehicle
Unknown
Launch site
Taiyaun Space Center, China (TSC)
Object type
Payload
Rocket body
Debris
Shape & HBR
Unknown shape, 2.4 m
Radar Cross Section
Large (>1 m²)

Expand to show TLE details & history
Last TLE update: 2 days ago

TLE from 2 days ago
0 CZ-6A DEB
1 57834U 23139E   26171.44779477  .00000274  00000-0  10198-3 0  9996
2 57834  85.9900 246.7496 0009809 253.0813 106.9304 14.28398424144722
Epoch: 2026-06-20T10:44Z
TLE epoch observation values (Epoch: 2026-06-20T10:44:49.468Z)
Latitude
0.00001°
Longitude
176.8812°
Altitude
802.182 km
Speed
7.451 km/s
True Right ascension
16h 26m 59s
True Declination
0° 00' 00"
Sunlit
Object was in full shadow at epoch
Visualization orbit readout
Latitude
Unknown
Longitude
Unknown
Altitude
Unknown
Speed
Unknown
Apparent Right ascension
Unknown
Apparent Declination
Unknown
Sunlit
N/A
Visualization observer readout
Local Sidereal Time
21:32:16
Azimuth
Unknown
Elevation
Unknown
Doppler factor
Unknown
Orbital elements
Apogee altitude
801.106 km
Perigee altitude
787.035 km
Semi-major axis
7,172.208 km
Eccentricity
0.00098
Inclination
85.99°
RAAN
246.7496°
Arg. of periapsis
253.0813°
True anomaly
107.03789°
Mean anomaly
106.9304°
Eccentric anomaly
106.98415°
Mean motion
3.57325 °/min
Orbital period
100.75 mins
BSTAR
0.00010198
Loading maneuver chart data...
Computing Atmospheric mass density...
Loading historical data...
Loading historical data...
Loading historical data...
Loading historical data...
Loading historical data...
Loading historical data...
Loading historical data...
Other satellites on launch #139 in the year 2023 (2023-09-10 UTC)

Documentation

Showing up to 5 results
|